When you browse on this site, cookies collect data to enhance your experience and personalize the content and advertising you see.
Visit our Privacy Policy to learn more. By continuing to use the site, you agree to this use of cookies and data.
  • In Austria
  • List of Countries
  • For 7 days
  • Water Temperature
  • Satellite Maps
  • Weather Map
  • News
  • Weather Widgets
  • user-avatar
    Login

    Hourly Weather Kitzbuhel

    Today, 18 January, Friday

    Time Temperature Precipitation Wind Pressure Humidity
    00:00 -1°C° 0.8 mm 1 mps 670 mmHg 95%
    01:00 -1°C° 0 mm 1 mps 670 mmHg 95%
    02:00 -2°C° 0.4 mm 1 mps 671 mmHg 95%
    03:00 -2°C° 0.4 mm 1 mps 671 mmHg 95%
    04:00 -2°C° 0.4 mm 1 mps 671 mmHg 95%
    05:00 -2°C° 0.4 mm 1 mps 672 mmHg 95%
    06:00 -2°C° 0.4 mm 1 mps 672 mmHg 96%
    07:00 -4°C° 0 mm 2 mps 673 mmHg 94%
    08:00 -4°C° 0.1 mm 2 mps 673 mmHg 93%
    09:00 -5°C° 0.1 mm 2 mps 674 mmHg 92%
    10:00 -5°C° 0.1 mm 2 mps 674 mmHg 91%
    11:00 -3°C° 0 mm 1 mps 674 mmHg 89%
    12:00 -2°C° 0 mm 1 mps 674 mmHg 86%
    13:00 -2°C° 0 mm 1 mps 674 mmHg 84%
    14:00 -3°C° 0 mm 1 mps 674 mmHg 85%
    15:00 -4°C° 0 mm 1 mps 674 mmHg 86%
    16:00 -5°C° 0 mm 0 mps 674 mmHg 87%
    17:00 -7°C° 0 mm 1 mps 674 mmHg 87%
    18:00 -8°C° 0 mm 1 mps 674 mmHg 87%
    19:00 -10°C° 0 mm 1 mps 674 mmHg 86%
    20:00 -12°C° 0 mm 2 mps 675 mmHg 83%
    21:00 -12°C° 0 mm 2 mps 675 mmHg 79%
    22:00 -12°C° 0 mm 2 mps 675 mmHg 76%
    23:00 -12°C° 0 mm 2 mps 675 mmHg 73%

    Tomorrow, 19 January, Saturday

    Time Temperature Precipitation Wind Pressure Humidity
    00:00 -12°C° 0 mm 2 mps 675 mmHg 71%
    01:00 -12°C° 0 mm 2 mps 674 mmHg 69%
    02:00 -12°C° 0 mm 2 mps 674 mmHg 70%
    03:00 -12°C° 0 mm 2 mps 674 mmHg 70%
    04:00 -10°C° 0 mm 2 mps 674 mmHg 71%
    05:00 -10°C° 0 mm 2 mps 674 mmHg 72%
    06:00 -10°C° 0 mm 2 mps 674 mmHg 74%
    07:00 -9°C° 0 mm 2 mps 674 mmHg 76%
    08:00 -7°C° 0 mm 1 mps 674 mmHg 77%
    09:00 -4°C° 0 mm 1 mps 674 mmHg 79%
    10:00 -3°C° 0 mm 1 mps 674 mmHg 81%
    11:00 -2°C° 0 mm 1 mps 674 mmHg 80%
    12:00 0°C° 0 mm 1 mps 674 mmHg 79%
    13:00 0°C° 0 mm 0 mps 673 mmHg 78%
    14:00 -1°C° 0 mm 0 mps 673 mmHg 82%
    15:00 -1°C° 0 mm 0 mps 673 mmHg 86%
    16:00 -2°C° 0 mm 0 mps 672 mmHg 89%
    17:00 -2°C° 0 mm 1 mps 672 mmHg 88%
    18:00 -3°C° 0 mm 1 mps 672 mmHg 86%
    19:00 -4°C° 0 mm 1 mps 672 mmHg 85%
    20:00 -4°C° 0 mm 1 mps 672 mmHg 83%
    21:00 -6°C° 0 mm 2 mps 672 mmHg 81%
    22:00 -6°C° 0 mm 2 mps 672 mmHg 80%
    23:00 -6°C° 0 mm 2 mps 672 mmHg 79%

    Day after tomorrow, 20 January, Sunday

    Time Temperature Precipitation Wind Pressure Humidity
    00:00 -7°C° 0 mm 2 mps 672 mmHg 78%
    01:00 -7°C° 0 mm 2 mps 672 mmHg 77%
    02:00 -7°C° 0 mm 2 mps 672 mmHg 76%
    03:00 -8°C° 0 mm 2 mps 671 mmHg 75%
    04:00 -8°C° 0 mm 2 mps 671 mmHg 74%
    05:00 -8°C° 0 mm 2 mps 671 mmHg 74%
    06:00 -8°C° 0 mm 2 mps 671 mmHg 74%
    07:00 -8°C° 0 mm 2 mps 671 mmHg 73%
    08:00 -7°C° 0 mm 2 mps 672 mmHg 75%
    09:00 -4°C° 0 mm 1 mps 672 mmHg 76%
    10:00 -2°C° 0 mm 1 mps 673 mmHg 77%
    11:00 -1°C° 0 mm 1 mps 672 mmHg 77%
    12:00 0°C° 0 mm 1 mps 672 mmHg 77%
    13:00 +1°C° 0 mm 1 mps 672 mmHg 76%
    14:00 -1°C° 0 mm 0 mps 672 mmHg 80%
    15:00 -2°C° 0 mm 0 mps 672 mmHg 85%
    16:00 -3°C° 0 mm 0 mps 672 mmHg 89%
    17:00 -3°C° 0 mm 1 mps 672 mmHg 88%
    18:00 -4°C° 0 mm 1 mps 673 mmHg 87%
    19:00 -6°C° 0 mm 1 mps 673 mmHg 86%
    20:00 -6°C° 0 mm 1 mps 674 mmHg 84%
    21:00 -6°C° 0 mm 1 mps 674 mmHg 82%
    22:00 -6°C° 0 mm 1 mps 674 mmHg 80%
    23:00 -7°C° 0 mm 1 mps 675 mmHg 80%

    21 January, Monday

    Time Temperature Precipitation Wind Pressure Humidity
    00:00 -7°C° 0 mm 1 mps 675 mmHg 80%
    01:00 -7°C° 0 mm 1 mps 675 mmHg 80%
    02:00 -8°C° 0 mm 1 mps 675 mmHg 81%
    03:00 -8°C° 0 mm 1 mps 675 mmHg 82%
    04:00 -8°C° 0 mm 1 mps 675 mmHg 83%
    05:00 -8°C° 0 mm 1 mps 676 mmHg 84%
    06:00 -8°C° 0 mm 1 mps 676 mmHg 85%
    07:00 -8°C° 0 mm 1 mps 676 mmHg 85%
    08:00 -7°C° 0 mm 1 mps 677 mmHg 86%
    09:00 -6°C° 0 mm 0 mps 677 mmHg 86%
    10:00 -4°C° 0 mm 0 mps 678 mmHg 86%
    11:00 -4°C° 0 mm 0 mps 678 mmHg 86%
    12:00 -2°C° 0 mm 1 mps 677 mmHg 86%
    13:00 -1°C° 0 mm 1 mps 677 mmHg 86%
    14:00 -1°C° 0 mm 1 mps 677 mmHg 88%
    15:00 -2°C° 0 mm 1 mps 677 mmHg 89%
    16:00 -2°C° 0 mm 1 mps 677 mmHg 91%
    17:00 -4°C° 0 mm 1 mps 677 mmHg 92%
    18:00 -6°C° 0 mm 1 mps 677 mmHg 92%
    19:00 -7°C° 0 mm 1 mps 677 mmHg 93%
    20:00 -8°C° 0 mm 1 mps 677 mmHg 90%
    21:00 -9°C° 0 mm 1 mps 677 mmHg 87%
    22:00 -10°C° 0 mm 2 mps 677 mmHg 84%
    23:00 -10°C° 0 mm 2 mps 677 mmHg 80%

    22 January, Tuesday

    Time Temperature Precipitation Wind Pressure Humidity
    00:00 -10°C° 0 mm 2 mps 676 mmHg 75%
    01:00 -12°C° 0 mm 2 mps 676 mmHg 71%
    02:00 -12°C° 0 mm 2 mps 676 mmHg 69%
    03:00 -12°C° 0 mm 2 mps 675 mmHg 66%
    04:00 -12°C° 0 mm 2 mps 675 mmHg 64%
    05:00 -12°C° 0 mm 2 mps 674 mmHg 63%
    06:00 -12°C° 0 mm 2 mps 674 mmHg 62%
    07:00 -12°C° 0 mm 2 mps 673 mmHg 61%
    08:00 -9°C° 0 mm 2 mps 673 mmHg 64%
    09:00 -7°C° 0 mm 2 mps 673 mmHg 66%
    10:00 -6°C° 0 mm 2 mps 672 mmHg 69%
    11:00 -2°C° 0 mm 1 mps 671 mmHg 70%
    12:00 0°C° 0 mm 1 mps 671 mmHg 70%
    13:00 +1°C° 0 mm 0 mps 670 mmHg 70%
    14:00 0°C° 0 mm 0 mps 669 mmHg 73%
    15:00 0°C° 0 mm 1 mps 668 mmHg 76%
    16:00 -1°C° 0 mm 1 mps 666 mmHg 79%
    17:00 -3°C° 0 mm 1 mps 666 mmHg 77%
    18:00 -6°C° 0 mm 2 mps 665 mmHg 76%
    19:00 -7°C° 0 mm 2 mps 664 mmHg 74%
    20:00 -7°C° 0 mm 2 mps 664 mmHg 73%
    21:00 -7°C° 0 mm 2 mps 664 mmHg 72%
    22:00 -7°C° 0 mm 2 mps 663 mmHg 72%
    23:00 -7°C° 0 mm 2 mps 663 mmHg 72%

    23 January, Wednesday

    Time Temperature Precipitation Wind Pressure Humidity
    00:00 -6°C° 0 mm 1 mps 662 mmHg 73%
    01:00 -6°C° 0 mm 1 mps 661 mmHg 73%
    02:00 -6°C° 0 mm 1 mps 661 mmHg 75%
    03:00 -6°C° 0 mm 1 mps 660 mmHg 76%
    04:00 -6°C° 0 mm 1 mps 660 mmHg 78%
    05:00 -6°C° 0.3 mm 1 mps 660 mmHg 83%
    06:00 -6°C° 0.3 mm 1 mps 659 mmHg 87%
    07:00 -6°C° 0.3 mm 1 mps 659 mmHg 92%
    08:00 -4°C° 0.1 mm 1 mps 659 mmHg 91%
    09:00 -4°C° 0.1 mm 1 mps 658 mmHg 89%
    10:00 -3°C° 0.1 mm 1 mps 658 mmHg 88%
    11:00 -3°C° 0 mm 1 mps 657 mmHg 86%
    12:00 -3°C° 0 mm 1 mps 656 mmHg 84%
    13:00 -2°C° 0 mm 1 mps 656 mmHg 82%
    14:00 -3°C° 0.2 mm 1 mps 655 mmHg 87%
    15:00 -6°C° 0.2 mm 2 mps 655 mmHg 91%
    16:00 -6°C° 0.2 mm 2 mps 654 mmHg 96%
    17:00 -7°C° 0.8 mm 2 mps 654 mmHg 96%
    18:00 -7°C° 0.8 mm 2 mps 654 mmHg 97%
    19:00 -7°C° 0.8 mm 2 mps 654 mmHg 97%
    20:00 -8°C° 1.1 mm 2 mps 654 mmHg 97%
    21:00 -7°C° 1.1 mm 1 mps 654 mmHg 97%
    22:00 -7°C° 1.1 mm 1 mps 654 mmHg 98%
    23:00 -7°C° 0.9 mm 1 mps 654 mmHg 98%
    Show more